GW7346 Weather Reports


time (UTC)temp
F
wind
direction
speed
knots
gust
knots
rain 1hr
in
rain 24hr
in
rain mn
in
humidity
%
barometer
mb
20260504201517 77 153 5.2 11.3 0.00 0.00 0.00 33 1010.3
20260504201008 77 349 5.2 11.3 0.00 0.00 0.00 33 1010.6
20260504200507 77 189 2.6 9.6 0.00 0.00 0.00 33 1010.5
20260504200024 77 167 2.6 10.4 0.00 0.00 0.00 33 1010.7
20260504195506 77 271 4.3 10.4 0.00 0.00 0.00 31 1010.8
20260504195007 77 157 3.5 10.4 0.00 0.00 0.00 32 1010.8
20260504194513 77 281 5.2 9.6 0.00 0.00 0.00 33 1010.9
20260504194005 77 263 2.6 13.9 0.00 0.00 0.00 34 1011.0
20260504193509 77 232 6.1 13.9 0.00 0.00 0.00 33 1010.9
20260504193022 76 301 1.7 9.6 0.00 0.00 0.00 34 1011.1
20260504192502 76 136 0.9 11.3 0.00 0.00 0.00 33 1011.2
20260504192007 76 281 3.5 13.0 0.00 0.00 0.00 34 1011.2
20260504191516 76 228 4.3 13.0 0.00 0.00 0.00 33 1011.3
20260504191007 76 180 4.3 13.0 0.00 0.00 0.00 33 1011.3
20260504190504 76 304 3.5 13.0 0.00 0.00 0.00 35 1011.4
20260504190018 76 205 2.6 13.0 0.00 0.00 0.00 35 1011.5
20260504185506 76 157 3.5 10.4 0.00 0.00 0.00 34 1011.6
20260504185006 76 232 3.5 9.6 0.00 0.00 0.00 34 1011.6
20260504184533 76 136 4.3 14.8 0.00 0.00 0.00 33 1011.8
20260504184011 76 302 5.2 14.8 0.00 0.00 0.00 32 1012.0
20260504183513 76 224 3.5 10.4 0.00 0.00 0.00 33 1012.1
20260504183025 77 169 1.7 10.4 0.00 0.00 0.00 34 1012.1
20260504182511 77 285 3.5 10.4 0.00 0.00 0.00 32 1012.2
20260504182008 77 209 1.7 7.8 0.00 0.00 0.00 34 1012.2
20260504181516 76 174 2.6 7.8 0.00 0.00 0.00 32 1012.2
20260504181006 76 270 3.5 11.3 0.00 0.00 0.00 33 1012.2
20260504180506 76 230 3.5 11.3 0.00 0.00 0.00 30 1012.4
20260504180018 75 186 1.7 9.6 0.00 0.00 0.00 32 1012.3
20260504175507 75 216 3.5 13.0 0.00 0.00 0.00 33 1012.5
20260504175006 75 254 7.0 13.0 0.00 0.00 0.00 31 1012.6
20260504174522 75 214 3.5 12.2 0.00 0.00 0.00 33 1012.5
20260504174009 75 201 4.3 12.2 0.00 0.00 0.00 33 1012.6
20260504173511 75 221 3.5 7.8 0.00 0.00 0.00 32 1012.8
20260504173022 74 191 2.6 8.7 0.00 0.00 0.00 32 1012.8
20260504172510 74 238 2.6 13.0 0.00 0.00 0.00 32 1012.8
20260504172011 74 194 5.2 13.0 0.00 0.00 0.00 34 1012.9
20260504171528 74 204 4.3 8.7 0.00 0.00 0.00 33 1013.0
20260504171016 74 195 2.6 8.7 0.00 0.00 0.00 34 1013.0
20260504170508 74 252 4.3 10.4 0.00 0.00 0.00 35 1013.1
20260504151004 71 151 3.5 8.7 0.00 0.00 0.00 35 1014.4
20260504150508 70 196 0.9 7.0 0.00 0.00 0.00 37 1014.4
20260504141004 67 221 2.6 6.1 0.00 0.00 0.00 42 1014.6
20260504140507 66 216 2.6 6.1 0.00 0.00 0.00 43 1014.6
20260504130507 61 211 4.3 11.3 0.00 0.00 0.00 49 1015.0
20260504110506 48 227 0.0 3.5 0.00 0.00 0.00 77 1015.4
20260504100506 48 175 0.9 3.5 0.00 0.00 0.00 77 1015.5
20260504081540 45 246 0.0 1.7 0.00 0.00 0.00 82 1015.9
20260504081011 45 246 0.0 0.9 0.00 0.00 0.00 82 1015.8
20260504080510 45 246 0.0 1.7 0.00 0.00 0.00 81 1015.9
20260504050504 40 190 0.0 0.0 0.00 0.00 0.00 84 1016.1
20260504050014 40 190 0.0 0.0 0.00 0.00 0.00 83 1016.1
20260504045502 40 190 0.0 0.0 0.00 0.00 0.00 83 1016.1
20260504045003 40 190 0.0 0.0 0.00 0.00 0.00 83 1016.1
20260504044508 40 190 0.0 0.0 0.00 0.00 0.00 83 1016.2
20260504044003 40 190 0.0 0.0 0.00 0.00 0.00 84 1016.2
20260504043504 40 190 0.0 0.0 0.00 0.00 0.00 84 1016.2
20260504043033 40 190 0.0 0.0 0.00 0.00 0.00 83 1016.2
20260504042505 40 190 0.0 0.0 0.00 0.00 0.00 83 1016.1
20260504042009 40 190 0.0 0.0 0.00 0.00 0.00 82 1016.2
20260504041506 41 190 0.0 0.0 0.00 0.00 0.00 82 1016.1
20260504041003 41 190 0.0 0.0 0.00 0.00 0.00 82 1016.1
20260504040508 41 190 0.0 0.0 0.00 0.00 0.00 82 1016.0
20260504040022 41 190 0.0 0.0 0.00 0.00 0.00 81 1016.1
20260504035505 41 190 0.0 0.0 0.00 0.00 0.00 81 1016.1
20260504035004 41 190 0.0 0.0 0.00 0.00 0.00 81 1016.1
20260504034506 41 190 0.0 0.0 0.00 0.00 0.00 81 1015.9
20260504034004 42 190 0.0 0.0 0.00 0.00 0.00 80 1015.9
20260504033501 42 190 0.0 1.7 0.00 0.00 0.00 79 1015.8
20260504033012 42 190 0.0 1.7 0.00 0.00 0.00 79 1015.8
20260504032504 42 197 0.0 0.9 0.00 0.00 0.00 78 1015.7
20260504032010 42 197 0.0 0.0 0.00 0.00 0.00 77 1015.6
20260504031516 42 197 0.0 0.0 0.00 0.00 0.00 76 1015.5
20260504031009 43 197 0.0 0.0 0.00 0.00 0.00 76 1015.4
20260504030505 43 197 0.0 0.0 0.00 0.00 0.00 75 1015.3
20260504030026 43 197 0.0 0.0 0.00 0.00 0.00 74 1015.5
20260504025503 43 197 0.0 0.0 0.00 0.00 0.00 73 1015.5
20260504025002 44 197 0.0 0.0 0.00 0.00 0.00 73 1015.4
20260504024514 44 197 0.0 0.0 0.00 0.00 0.00 73 1015.5
20260504024007 44 197 0.0 0.0 0.00 0.00 0.00 72 1015.4
20260504023503 44 197 0.0 0.0 0.00 0.00 0.00 71 1015.5
20260504023010 45 197 0.0 0.0 0.00 0.00 0.00 70 1015.5
20260504022502 45 197 0.0 0.0 0.00 0.00 0.00 68 1015.5
20260504022007 45 197 0.0 0.0 0.00 0.00 0.00 68 1015.6
20260504021508 45 197 0.0 0.0 0.00 0.00 0.00 68 1015.6
20260504021003 46 197 0.0 0.0 0.00 0.00 0.00 68 1015.5
20260504020502 46 197 0.0 0.0 0.00 0.00 0.00 67 1015.4
20260504020019 46 197 0.0 0.0 0.00 0.00 0.00 66 1015.4
20260504015509 47 197 0.0 0.0 0.00 0.00 0.00 64 1015.3
20260504015011 47 197 0.0 0.0 0.00 0.00 0.00 63 1015.5
20260504014533 47 197 0.0 0.0 0.00 0.00 0.00 62 1015.4
20260504014009 48 197 0.0 0.0 0.00 0.00 0.00 60 1015.5
20260504013507 48 197 0.0 0.0 0.00 0.00 0.00 59 1015.3
20260504013027 49 197 0.0 0.0 0.00 0.00 0.00 59 1015.3
20260504012504 49 197 0.0 0.0 0.00 0.00 0.00 58 1015.3
20260504012003 49 197 0.0 0.0 0.00 0.00 0.00 56 1015.2
20260504011510 50 197 0.0 0.0 0.00 0.00 0.00 55 1015.2
20260504011002 50 197 0.0 0.0 0.00 0.00 0.00 54 1015.2
20260504010503 51 197 0.0 0.0 0.00 0.00 0.00 53 1015.1
20260504010014 51 197 0.0 0.0 0.00 0.00 0.00 52 1015.1
20260504005510 52 197 0.0 0.0 0.00 0.00 0.00 51 1015.0
20260504005006 52 197 0.0 0.0 0.00 0.00 0.00 49 1015.0
20260504004514 53 197 0.0 0.0 0.00 0.00 0.00 48 1015.0
20260504004008 53 197 0.0 0.0 0.00 0.00 0.00 48 1015.0
20260504003509 54 197 0.0 0.0 0.00 0.00 0.00 47 1014.9
20260504003024 54 197 0.0 0.9 0.00 0.00 0.00 46 1014.9
20260504002512 55 197 0.0 0.9 0.00 0.00 0.00 46 1014.8
20260504002002 55 197 0.0 0.0 0.00 0.00 0.00 45 1014.7
20260504001505 56 197 0.0 0.0 0.00 0.00 0.00 44 1014.7
20260504001004 56 197 0.0 0.0 0.00 0.00 0.00 43 1014.7
20260504000504 57 197 0.0 0.9 0.00 0.00 0.00 42 1014.6
20260504000007 57 197 0.0 1.7 0.00 0.00 0.00 41 1014.6
20260503235504 58 197 0.0 1.7 0.00 0.00 0.00 40 1014.6
20260503235004 58 218 0.0 1.7 0.00 0.00 0.00 38 1014.5
20260503234504 59 218 0.0 1.7 0.00 0.00 0.00 38 1014.5
20260503234004 59 201 0.0 4.3 0.00 0.00 0.00 37 1014.4
20260503233504 60 201 0.0 4.3 0.00 0.00 0.00 36 1014.3
20260503233018 60 236 0.0 3.5 0.00 0.00 0.00 34 1014.3
20260503232502 60 279 0.0 3.5 0.00 0.00 0.00 33 1014.2
20260503232006 61 287 0.0 3.5 0.00 0.00 0.00 33 1014.2
20260503231504 61 21 0.9 8.7 0.00 0.00 0.00 33 1014.2
20260503231003 61 288 3.5 8.7 0.00 0.00 0.00 32 1014.2
20260503230507 61 258 1.7 7.0 0.00 0.00 0.00 31 1014.1
20260503230008 62 181 1.7 8.7 0.00 0.00 0.00 31 1014.1
20260503225503 62 337 1.7 8.7 0.00 0.00 0.00 30 1014.2
20260503225003 62 150 2.6 8.7 0.00 0.00 0.00 30 1014.2
20260503224509 62 296 1.7 11.3 0.00 0.00 0.00 31 1014.3
20260503224003 62 336 1.7 11.3 0.00 0.00 0.00 30 1014.3
20260503223502 62 327 4.3 10.4 0.00 0.00 0.00 30 1014.3
20260503223007 62 344 2.6 8.7 0.00 0.00 0.00 31 1014.2
20260503222504 63 267 2.6 11.3 0.00 0.00 0.00 29 1014.2
20260503222006 63 234 5.2 11.3 0.00 0.00 0.00 29 1014.1
20260503221511 63 317 3.5 8.7 0.00 0.00 0.00 30 1014.1
20260503221009 64 274 2.6 7.8 0.00 0.00 0.00 30 1014.1
20260503220504 64 309 2.6 13.0 0.00 0.00 0.00 29 1014.3
20260503220006 65 342 1.7 13.0 0.00 0.00 0.00 28 1014.3
20260503215503 65 335 5.2 10.4 0.00 0.00 0.00 28 1014.4
20260503215003 65 331 3.5 11.3 0.00 0.00 0.00 28 1014.3
20260503214512 65 212 4.3 11.3 0.00 0.00 0.00 29 1014.3
20260503214003 64 315 3.5 11.3 0.00 0.00 0.00 29 1014.2
20260503213503 64 336 5.2 11.3 0.00 0.00 0.00 29 1014.3
20260503213011 64 275 5.2 13.9 0.00 0.00 0.00 29 1014.2
20260503212504 64 331 2.6 13.9 0.00 0.00 0.00 29 1014.0
20260503212005 64 267 5.2 10.4 0.00 0.00 0.00 29 1014.2
20260503211514 64 210 3.5 11.3 0.00 0.00 0.00 29 1014.2
20260503211004 64 256 2.6 11.3 0.00 0.00 0.00 30 1014.3
20260503210506 64 283 4.3 11.3 0.00 0.00 0.00 30 1014.2
20260503210008 63 347 3.5 11.3 0.00 0.00 0.00 31 1014.3
20260503205503 63 187 3.5 11.3 0.00 0.00 0.00 31 1014.3
20260503205003 63 288 2.6 11.3 0.00 0.00 0.00 31 1014.2
20260503204508 63 263 5.2 11.3 0.00 0.00 0.00 33 1014.3
20260503204004 63 274 4.3 16.5 0.00 0.00 0.00 31 1014.3
20260503203507 63 315 7.8 16.5 0.00 0.00 0.00 33 1014.4
20260503203035 62 262 2.6 10.4 0.00 0.00 0.00 34 1014.4
20260503202507 62 311 4.3 10.4 0.00 0.00 0.00 33 1014.6
20260503202004 62 305 4.3 12.2 0.00 0.00 0.00 32 1014.6